This is the latest recevied weather packets stored in our database for station/object IS0HYQ-12. If no packets are shown the sender has not sent any weather packets the latest 10 day(s).
| Time | Temp. | Humidity | Pressure | Rain* | Wind** | Luminosity | Snow |
|---|---|---|---|---|---|---|---|
| 1777768362 | 16.11° C | 99% | 1020.5 hPa | - | - | - | - |
| 1777767461 | 16.67° C | 99% | 1020.2 hPa | - | - | - | - |
| 1777766561 | 16.67° C | 99% | 1020.2 hPa | - | - | - | - |
| 1777765661 | 16.67° C | 99% | 1020.3 hPa | - | - | - | - |
| 1777764761 | 17.22° C | 99% | 1020.5 hPa | - | - | - | - |
| 1777763873 | 16.67° C | 99% | 1020.6 hPa | - | - | - | - |
| 1777762973 | 16.67° C | 99% | 1020.7 hPa | - | - | - | - |
| 1777762060 | 16.67° C | 99% | 1020.8 hPa | - | - | - | - |
| 1777761159 | 16.67° C | 99% | 1020.8 hPa | - | - | - | - |
| 1777760259 | 16.67° C | 99% | 1020.9 hPa | - | - | - | - |
| 1777759359 | 16.67° C | 99% | 1021 hPa | - | - | - | - |
| 1777758459 | 16.67° C | 99% | 1021.2 hPa | - | - | - | - |
| 1777757558 | 16.67° C | 99% | 1021.2 hPa | - | - | - | - |
| 1777756660 | 16.67° C | 99% | 1021.3 hPa | - | - | - | - |
| 1777755757 | 17.22° C | 99% | 1021.5 hPa | - | - | - | - |
| 1777754857 | 17.22° C | 99% | 1021.6 hPa | - | - | - | - |
| 1777753957 | 17.78° C | 99% | 1021.8 hPa | - | - | - | - |
| 1777753056 | 17.78° C | 99% | 1021.9 hPa | - | - | - | - |
| 1777752155 | 18.33° C | 99% | 1022 hPa | - | - | - | - |
| 1777751255 | 18.33° C | 99% | 1021.9 hPa | - | - | - | - |
| 1777750366 | 18.89° C | 99% | 1021.8 hPa | - | - | - | - |
| 1777748566 | 18.89° C | 94% | 1021.6 hPa | - | - | - | - |
| 1777747665 | 19.44° C | 78% | 1021.5 hPa | - | - | - | - |
| 1777746765 | 20° C | 73% | 1021.4 hPa | - | - | - | - |
| 1777745865 | 20.56° C | 63% | 1021.2 hPa | - | - | - | - |
* Rain since midnight (hover to see other rain measurements)
** Current wind speed in m/s (hover to see current wind gust speed)